Station Historical Data
Daily Summary for September 8, 2017 Units:  English    Metric   Both
« Previous Day
Next Day »
Daily Weekly Monthly Yearly Custom
  High: Low: Average:
Temperature: 81.0 °F 61.8 °F 69.9 °F
Dew Point: 58.2 °F 48.6 °F 53.2 °F
Humidity: 82 % 34 % 57 %
Wind Speed: 14.0 mph 0.0 mph 2.7 mph
Wind Gust: 16.0 mph - -
Wind:- - SE
Pressure: 29.90 in 29.85 in -
Precipitation: 0.00 in    
Historical Graphs
 
 
Tabular Data for September 8, 2017
Time Temperature Dew Point Pressure Wind Wind Speed Wind Gust Humidity Rainfall Rate (Hourly) solar
00:03 61.8 °F 55.9 °F 29.90 in Calm   6.0 mph 81 % 0.00 in 0.00 W/m2
00:08 61.8 °F 56.2 °F 29.90 in WSW 1.0 mph 6.0 mph 82 % 0.00 in 0.00 W/m2
00:13 61.8 °F 56.2 °F 29.90 in WSW 4.0 mph 4.0 mph 82 % 0.00 in 0.00 W/m2
00:18 61.8 °F 56.2 °F 29.89 in WSW 4.0 mph 5.0 mph 82 % 0.00 in 0.00 W/m2
00:23 61.8 °F 56.2 °F 29.89 in WSW 3.0 mph 8.0 mph 82 % 0.00 in 0.00 W/m2
00:28 61.8 °F 56.2 °F 29.89 in Calm   6.0 mph 82 % 0.00 in 0.00 W/m2
00:33 61.9 °F 56.3 °F 29.89 in WSW 3.0 mph 4.0 mph 82 % 0.00 in 0.00 W/m2
00:38 62.0 °F 56.1 °F 29.89 in WSW 4.0 mph 5.0 mph 81 % 0.00 in 0.00 W/m2
00:43 62.1 °F 56.2 °F 29.89 in WSW 4.0 mph 5.0 mph 81 % 0.00 in 0.00 W/m2
00:48 62.2 °F 56.3 °F 29.89 in WSW 3.0 mph 7.0 mph 81 % 0.00 in 0.00 W/m2
00:53 62.2 °F 56.3 °F 29.89 in SW 6.0 mph 6.0 mph 81 % 0.00 in 0.00 W/m2
00:58 62.3 °F 56.4 °F 29.89 in South 7.0 mph 7.0 mph 81 % 0.00 in 0.00 W/m2
01:03 62.4 °F 56.2 °F 29.89 in Calm   7.0 mph 80 % 0.00 in 0.00 W/m2
01:08 62.5 °F 56.2 °F 29.89 in SE 4.0 mph 8.0 mph 80 % 0.00 in 0.00 W/m2
01:13 62.6 °F 56.3 °F 29.88 in Calm   5.0 mph 80 % 0.00 in 0.00 W/m2
01:18 62.7 °F 56.5 °F 29.88 in Calm   5.0 mph 80 % 0.00 in 0.00 W/m2
01:23 62.8 °F 56.5 °F 29.89 in Calm   7.0 mph 80 % 0.00 in 0.00 W/m2
01:28 62.8 °F 56.2 °F 29.89 in SE 5.0 mph 7.0 mph 79 % 0.00 in 0.00 W/m2
01:33 62.9 °F 56.3 °F 29.89 in Calm   5.0 mph 79 % 0.00 in 0.00 W/m2
01:38 62.9 °F 56.3 °F 29.88 in ESE 2.0 mph 9.0 mph 79 % 0.00 in 0.00 W/m2
01:43 63.0 °F 56.4 °F 29.88 in ESE 8.0 mph 11.0 mph 79 % 0.00 in 0.00 W/m2
01:48 63.0 °F 56.4 °F 29.88 in ESE 4.0 mph 11.0 mph 79 % 0.00 in 0.00 W/m2
01:53 63.0 °F 56.4 °F 29.88 in ESE 5.0 mph 11.0 mph 79 % 0.00 in 0.00 W/m2
01:58 63.0 °F 56.4 °F 29.88 in East 4.0 mph 12.0 mph 79 % 0.00 in 0.00 W/m2
02:03 63.0 °F 56.4 °F 29.88 in East 1.0 mph 7.0 mph 79 % 0.00 in 0.00 W/m2
02:08 63.1 °F 56.1 °F 29.89 in East 2.0 mph 11.0 mph 78 % 0.00 in 0.00 W/m2
02:13 63.1 °F 56.1 °F 29.89 in East 2.0 mph 11.0 mph 78 % 0.00 in 0.00 W/m2
02:18 63.2 °F 56.2 °F 29.89 in East 7.0 mph 8.0 mph 78 % 0.00 in 0.00 W/m2
02:23 63.2 °F 56.2 °F 29.89 in East 2.0 mph 9.0 mph 78 % 0.00 in 0.00 W/m2
02:29 63.2 °F 55.9 °F 29.88 in East 5.0 mph 8.0 mph 77 % 0.00 in 0.00 W/m2
02:34 63.2 °F 55.9 °F 29.88 in East 7.0 mph 8.0 mph 77 % 0.00 in 0.00 W/m2
02:39 63.2 °F 55.9 °F 29.88 in East 5.0 mph 9.0 mph 77 % 0.00 in 0.00 W/m2
02:44 63.3 °F 56.0 °F 29.88 in East 7.0 mph 7.0 mph 77 % 0.00 in 0.00 W/m2
02:49 63.3 °F 55.6 °F 29.88 in East 4.0 mph 9.0 mph 76 % 0.00 in 0.00 W/m2
02:54 63.3 °F 55.6 °F 29.88 in East 2.0 mph 9.0 mph 76 % 0.00 in 0.00 W/m2
02:59 63.3 °F 55.2 °F 29.88 in East 4.0 mph 8.0 mph 75 % 0.00 in 0.00 W/m2
03:04 63.3 °F 55.2 °F 29.88 in East 4.0 mph 7.0 mph 75 % 0.00 in 0.00 W/m2
03:09 63.4 °F 55.3 °F 29.88 in East 5.0 mph 7.0 mph 75 % 0.00 in 0.00 W/m2
03:14 63.4 °F 55.0 °F 29.88 in East 2.0 mph 7.0 mph 74 % 0.00 in 0.00 W/m2
03:19 63.4 °F 55.0 °F 29.87 in East 1.0 mph 8.0 mph 74 % 0.00 in 0.00 W/m2
03:21 63.4 °F 54.6 °F 29.88 in East 6.0 mph 6.0 mph 73 % 0.00 in 0.00 W/m2
03:26 63.4 °F 54.2 °F 29.87 in East 1.0 mph 12.0 mph 72 % 0.00 in 0.00 W/m2
03:31 63.4 °F 54.2 °F 29.87 in ESE 5.0 mph 5.0 mph 72 % 0.00 in 0.00 W/m2
03:36 63.5 °F 54.3 °F 29.87 in East 9.0 mph 9.0 mph 72 % 0.00 in 0.00 W/m2
03:41 63.5 °F 53.9 °F 29.87 in ESE 2.0 mph 6.0 mph 71 % 0.00 in 0.00 W/m2
03:46 63.5 °F 53.9 °F 29.86 in ESE 1.0 mph 2.0 mph 71 % 0.00 in 0.00 W/m2
03:51 63.6 °F 53.7 °F 29.86 in Calm   4.0 mph 70 % 0.00 in 0.00 W/m2
03:56 63.6 °F 53.3 °F 29.87 in East 2.0 mph 8.0 mph 69 % 0.00 in 0.00 W/m2
04:01 63.6 °F 53.3 °F 29.87 in ESE 7.0 mph 7.0 mph 69 % 0.00 in 0.00 W/m2
04:06 63.7 °F 53.0 °F 29.86 in ESE 9.0 mph 13.0 mph 68 % 0.00 in 0.00 W/m2
04:11 63.7 °F 52.5 °F 29.86 in East 6.0 mph 9.0 mph 67 % 0.00 in 0.00 W/m2
04:16 63.8 °F 52.7 °F 29.86 in ESE 5.0 mph 8.0 mph 67 % 0.00 in 0.00 W/m2
04:21 63.9 °F 52.7 °F 29.86 in ESE 5.0 mph 7.0 mph 67 % 0.00 in 0.00 W/m2
04:26 63.9 °F 52.3 °F 29.86 in East 6.0 mph 11.0 mph 66 % 0.00 in 0.00 W/m2
04:31 64.0 °F 52.4 °F 29.86 in East 5.0 mph 13.0 mph 66 % 0.00 in 0.00 W/m2
04:36 64.0 °F 52.0 °F 29.86 in Calm   9.0 mph 65 % 0.00 in 0.00 W/m2
04:41 64.0 °F 52.0 °F 29.86 in East 5.0 mph 8.0 mph 65 % 0.00 in 0.00 W/m2
04:46 64.0 °F 52.0 °F 29.86 in East 2.0 mph 9.0 mph 65 % 0.00 in 0.00 W/m2
04:51 64.0 °F 51.6 °F 29.86 in East 6.0 mph 7.0 mph 64 % 0.00 in 0.00 W/m2
04:56 64.0 °F 51.6 °F 29.87 in East 2.0 mph 9.0 mph 64 % 0.00 in 0.00 W/m2
05:01 64.0 °F 51.6 °F 29.86 in East 2.0 mph 9.0 mph 64 % 0.00 in 0.00 W/m2
05:06 64.0 °F 51.2 °F 29.86 in East 2.0 mph 5.0 mph 63 % 0.00 in 0.00 W/m2
05:11 64.0 °F 51.2 °F 29.86 in Calm   5.0 mph 63 % 0.00 in 0.00 W/m2
05:16 63.9 °F 50.6 °F 29.86 in ESE 1.0 mph 5.0 mph 62 % 0.00 in 0.00 W/m2
05:21 63.9 °F 50.6 °F 29.86 in Calm     62 % 0.00 in 0.00 W/m2
05:26 63.8 °F 51.4 °F 29.86 in ESE 1.0 mph 6.0 mph 64 % 0.00 in 0.00 W/m2
05:31 63.7 °F 50.9 °F 29.86 in Calm     63 % 0.00 in 0.00 W/m2
05:36 63.5 °F 50.3 °F 29.86 in Calm     62 % 0.00 in 0.00 W/m2
05:41 63.4 °F 49.7 °F 29.86 in Calm     61 % 0.00 in 0.00 W/m2
05:46 63.4 °F 50.2 °F 29.86 in Calm     62 % 0.00 in 0.00 W/m2
05:51 63.4 °F 50.6 °F 29.86 in Calm     63 % 0.00 in 0.00 W/m2
05:56 63.4 °F 51.0 °F 29.86 in Calm   2.0 mph 64 % 0.00 in 0.00 W/m2
06:01 63.4 °F 51.0 °F 29.86 in Calm     64 % 0.00 in 0.00 W/m2
06:06 63.2 °F 50.4 °F 29.86 in Calm     63 % 0.00 in 0.00 W/m2
06:11 63.1 °F 50.7 °F 29.86 in Calm     64 % 0.00 in 0.00 W/m2
06:16 63.1 °F 50.7 °F 29.86 in ESE 2.0 mph 6.0 mph 64 % 0.00 in 0.00 W/m2
06:21 63.0 °F 50.2 °F 29.86 in ESE 5.0 mph 9.0 mph 63 % 0.00 in 0.00 W/m2
06:26 62.9 °F 50.5 °F 29.86 in Calm   8.0 mph 64 % 0.00 in 0.00 W/m2
06:31 62.9 °F 50.1 °F 29.86 in ESE 2.0 mph 8.0 mph 63 % 0.00 in 0.00 W/m2
06:36 62.8 °F 50.0 °F 29.86 in Calm   12.0 mph 63 % 0.00 in 5.00 W/m2
06:42 62.7 °F 49.9 °F 29.86 in ESE 5.0 mph 9.0 mph 63 % 0.00 in 5.00 W/m2
06:47 62.7 °F 49.5 °F 29.86 in Calm   9.0 mph 62 % 0.00 in 7.00 W/m2
06:52 62.7 °F 49.5 °F 29.86 in ESE 6.0 mph 11.0 mph 62 % 0.00 in 11.00 W/m2
06:57 62.6 °F 49.0 °F 29.87 in ESE 4.0 mph 9.0 mph 61 % 0.00 in 14.00 W/m2
07:02 62.7 °F 49.1 °F 29.87 in ESE 5.0 mph 9.0 mph 61 % 0.00 in 19.00 W/m2
07:07 62.7 °F 48.6 °F 29.87 in ESE 11.0 mph 12.0 mph 60 % 0.00 in 26.00 W/m2
07:12 62.8 °F 48.7 °F 29.87 in ESE 14.0 mph 14.0 mph 60 % 0.00 in 33.00 W/m2
07:17 62.9 °F 48.8 °F 29.87 in East 2.0 mph 12.0 mph 60 % 0.00 in 46.00 W/m2
07:22 63.0 °F 48.9 °F 29.88 in ESE 6.0 mph 11.0 mph 60 % 0.00 in 60.00 W/m2
07:27 63.1 °F 49.0 °F 29.88 in ESE 2.0 mph 9.0 mph 60 % 0.00 in 74.00 W/m2
07:32 63.2 °F 49.1 °F 29.88 in Calm   12.0 mph 60 % 0.00 in 90.00 W/m2
07:37 63.2 °F 49.1 °F 29.88 in ESE 5.0 mph 9.0 mph 60 % 0.00 in 105.00 W/m2
07:42 63.3 °F 49.2 °F 29.88 in East 11.0 mph 12.0 mph 60 % 0.00 in 118.00 W/m2
07:47 63.4 °F 49.3 °F 29.88 in ESE 4.0 mph 9.0 mph 60 % 0.00 in 135.00 W/m2
07:52 63.5 °F 49.4 °F 29.88 in ESE 8.0 mph 9.0 mph 60 % 0.00 in 153.00 W/m2
07:57 63.5 °F 49.8 °F 29.88 in Calm   11.0 mph 61 % 0.00 in 172.00 W/m2
08:02 63.6 °F 49.9 °F 29.87 in ESE 1.0 mph 12.0 mph 61 % 0.00 in 193.00 W/m2
08:07 63.7 °F 50.0 °F 29.88 in ESE 9.0 mph 12.0 mph 61 % 0.00 in 220.00 W/m2
08:12 63.8 °F 50.1 °F 29.88 in ESE 5.0 mph 14.0 mph 61 % 0.00 in 241.00 W/m2
08:17 63.8 °F 50.1 °F 29.88 in ESE 7.0 mph 8.0 mph 61 % 0.00 in 237.00 W/m2
08:22 63.9 °F 50.2 °F 29.88 in ESE 4.0 mph 12.0 mph 61 % 0.00 in 278.00 W/m2
08:27 64.1 °F 50.4 °F 29.88 in Calm   9.0 mph 61 % 0.00 in 120.00 W/m2
08:32 64.2 °F 50.5 °F 29.89 in ESE 1.0 mph 8.0 mph 61 % 0.00 in 318.00 W/m2
08:37 64.4 °F 50.7 °F 29.89 in Calm   8.0 mph 61 % 0.00 in 327.00 W/m2
08:42 64.5 °F 50.8 °F 29.89 in ESE 5.0 mph 5.0 mph 61 % 0.00 in 339.00 W/m2
08:47 64.7 °F 51.0 °F 29.89 in ESE 4.0 mph 6.0 mph 61 % 0.00 in 350.00 W/m2
08:52 64.9 °F 51.6 °F 29.89 in Calm   6.0 mph 62 % 0.00 in 360.00 W/m2
08:57 65.1 °F 52.2 °F 29.88 in Calm   6.0 mph 63 % 0.00 in 371.00 W/m2
09:02 65.3 °F 52.4 °F 29.89 in ESE 4.0 mph 5.0 mph 63 % 0.00 in 387.00 W/m2
09:07 65.6 °F 52.2 °F 29.89 in Calm   4.0 mph 62 % 0.00 in 403.00 W/m2
09:12 65.8 °F 52.9 °F 29.89 in Calm     63 % 0.00 in 418.00 W/m2
09:17 66.0 °F 53.1 °F 29.89 in Calm   1.0 mph 63 % 0.00 in 438.00 W/m2
09:22 66.3 °F 53.3 °F 29.89 in Calm     63 % 0.00 in 461.00 W/m2
09:28 66.7 °F 54.2 °F 29.89 in Calm     64 % 0.00 in 279.00 W/m2
09:33 67.1 °F 53.7 °F 29.90 in Calm     62 % 0.00 in 485.00 W/m2
09:38 67.5 °F 53.1 °F 29.90 in East 2.0 mph 6.0 mph 60 % 0.00 in 499.00 W/m2
09:43 67.8 °F 53.0 °F 29.90 in Calm     59 % 0.00 in 508.00 W/m2
09:48 68.1 °F 54.2 °F 29.90 in Calm     61 % 0.00 in 519.00 W/m2
09:53 68.2 °F 54.7 °F 29.90 in Calm     62 % 0.00 in 529.00 W/m2
09:58 68.4 °F 54.9 °F 29.90 in Calm     62 % 0.00 in 545.00 W/m2
10:03 68.5 °F 55.4 °F 29.90 in Calm   5.0 mph 63 % 0.00 in 561.00 W/m2
10:08 68.7 °F 55.6 °F 29.90 in Calm   6.0 mph 63 % 0.00 in 575.00 W/m2
10:13 68.9 °F 56.2 °F 29.90 in Calm     64 % 0.00 in 584.00 W/m2
10:18 69.1 °F 56.0 °F 29.90 in Calm   2.0 mph 63 % 0.00 in 592.00 W/m2
10:23 69.4 °F 55.4 °F 29.90 in Calm   5.0 mph 61 % 0.00 in 606.00 W/m2
10:28 69.8 °F 54.4 °F 29.90 in Calm   5.0 mph 58 % 0.00 in 619.00 W/m2
10:33 70.4 °F 54.9 °F 29.90 in Calm   1.0 mph 58 % 0.00 in 629.00 W/m2
10:38 70.9 °F 56.3 °F 29.90 in Calm   4.0 mph 60 % 0.00 in 640.00 W/m2
10:43 71.3 °F 56.7 °F 29.90 in Calm   1.0 mph 60 % 0.00 in 649.00 W/m2
10:48 71.5 °F 56.4 °F 29.90 in Calm     59 % 0.00 in 661.00 W/m2
10:53 71.7 °F 56.2 °F 29.90 in Calm   5.0 mph 58 % 0.00 in 670.00 W/m2
10:58 71.9 °F 56.3 °F 29.90 in Calm   5.0 mph 58 % 0.00 in 680.00 W/m2
11:03 72.1 °F 56.0 °F 29.90 in SE 2.0 mph 8.0 mph 57 % 0.00 in 689.00 W/m2
11:08 72.4 °F 55.8 °F 29.90 in Calm   9.0 mph 56 % 0.00 in 696.00 W/m2
11:13 72.8 °F 55.2 °F 29.90 in SSW 3.0 mph 9.0 mph 54 % 0.00 in 703.00 W/m2
11:18 73.4 °F 55.8 °F 29.90 in SW 2.0 mph 10.0 mph 54 % 0.00 in 714.00 W/m2
11:23 73.7 °F 56.0 °F 29.90 in SSW 5.0 mph 7.0 mph 54 % 0.00 in 721.00 W/m2
11:28 74.0 °F 55.8 °F 29.90 in SSW 6.0 mph 8.0 mph 53 % 0.00 in 726.00 W/m2
11:33 74.3 °F 56.1 °F 29.90 in Calm   6.0 mph 53 % 0.00 in 733.00 W/m2
11:38 74.5 °F 56.8 °F 29.90 in Calm   5.0 mph 54 % 0.00 in 737.00 W/m2
11:43 74.7 °F 57.5 °F 29.90 in SSW 1.0 mph 5.0 mph 55 % 0.00 in 728.00 W/m2
11:48 75.0 °F 57.8 °F 29.90 in SW 3.0 mph 5.0 mph 55 % 0.00 in 726.00 W/m2
11:53 75.3 °F 57.5 °F 29.90 in Calm   3.0 mph 54 % 0.00 in 766.00 W/m2
11:58 75.5 °F 57.2 °F 29.89 in SW 5.0 mph 6.0 mph 53 % 0.00 in 788.00 W/m2
12:03 75.8 °F 58.0 °F 29.90 in WSW 2.0 mph 8.0 mph 54 % 0.00 in 577.00 W/m2
12:08 76.1 °F 57.8 °F 29.89 in WSW 4.0 mph 5.0 mph 53 % 0.00 in 819.00 W/m2
12:13 76.4 °F 57.5 °F 29.89 in WSW 3.0 mph 7.0 mph 52 % 0.00 in 798.00 W/m2
12:18 76.5 °F 57.6 °F 29.89 in West 8.0 mph 10.0 mph 52 % 0.00 in 809.00 W/m2
12:23 76.4 °F 57.5 °F 29.89 in Calm   4.0 mph 52 % 0.00 in 821.00 W/m2
12:28 76.6 °F 58.2 °F 29.89 in WSW 4.0 mph 8.0 mph 53 % 0.00 in 875.00 W/m2
12:33 76.9 °F 57.4 °F 29.89 in SW 4.0 mph 10.0 mph 51 % 0.00 in 338.00 W/m2
12:38 77.2 °F 56.6 °F 29.89 in Calm   1.0 mph 49 % 0.00 in 907.00 W/m2
12:43 77.5 °F 57.4 °F 29.89 in Calm   9.0 mph 50 % 0.00 in 872.00 W/m2
12:48 77.6 °F 57.0 °F 29.89 in WSW 5.0 mph 5.0 mph 49 % 0.00 in 881.00 W/m2
12:53 78.0 °F 55.0 °F 29.89 in SW 2.0 mph 6.0 mph 45 % 0.00 in 858.00 W/m2
12:58 78.1 °F 55.7 °F 29.89 in SW 5.0 mph 9.0 mph 46 % 0.00 in 896.00 W/m2
13:03 78.0 °F 55.6 °F 29.89 in Calm   6.0 mph 46 % 0.00 in 912.00 W/m2
13:08 78.2 °F 56.3 °F 29.89 in Calm   8.0 mph 47 % 0.00 in 795.00 W/m2
13:13 78.6 °F 57.3 °F 29.88 in SW 1.0 mph 5.0 mph 48 % 0.00 in 803.00 W/m2
13:18 79.1 °F 55.3 °F 29.88 in SSW 3.0 mph 10.0 mph 44 % 0.00 in 791.00 W/m2
13:23 79.5 °F 53.8 °F 29.88 in SSW 4.0 mph 6.0 mph 41 % 0.00 in 791.00 W/m2
13:28 79.8 °F 56.0 °F 29.88 in WSW 5.0 mph 7.0 mph 44 % 0.00 in 789.00 W/m2
13:33 79.8 °F 56.0 °F 29.88 in Calm   10.0 mph 44 % 0.00 in 782.00 W/m2
13:38 80.0 °F 56.2 °F 29.88 in Calm   7.0 mph 44 % 0.00 in 798.00 W/m2
13:43 80.0 °F 56.8 °F 29.88 in WSW 7.0 mph 7.0 mph 45 % 0.00 in 791.00 W/m2
13:48 80.4 °F 57.1 °F 29.88 in WSW 6.0 mph 8.0 mph 45 % 0.00 in 775.00 W/m2
13:53 80.9 °F 57.0 °F 29.88 in WSW 3.0 mph 6.0 mph 44 % 0.00 in 777.00 W/m2
13:58 81.0 °F 57.7 °F 29.87 in WSW 1.0 mph 7.0 mph 45 % 0.00 in 772.00 W/m2
14:03 80.9 °F 57.6 °F 29.87 in SW 3.0 mph 7.0 mph 45 % 0.00 in 780.00 W/m2
14:08 80.8 °F 56.9 °F 29.87 in Calm   6.0 mph 44 % 0.00 in 756.00 W/m2
14:13 80.3 °F 55.1 °F 29.87 in West 1.0 mph 8.0 mph 42 % 0.00 in 754.00 W/m2
14:19 79.8 °F 54.7 °F 29.87 in West 1.0 mph 7.0 mph 42 % 0.00 in 751.00 W/m2
14:23 79.7 °F 55.2 °F 29.86 in SW 4.0 mph 7.0 mph 43 % 0.00 in 744.00 W/m2
14:28 79.6 °F 53.2 °F 29.86 in WSW 4.0 mph 11.0 mph 40 % 0.00 in 737.00 W/m2
14:33 79.7 °F 52.6 °F 29.86 in Calm   7.0 mph 39 % 0.00 in 728.00 W/m2
14:39 79.6 °F 51.1 °F 29.86 in West 7.0 mph 7.0 mph 37 % 0.00 in 721.00 W/m2
14:50 79.9 °F 50.6 °F 29.86 in Calm   10.0 mph 36 % 0.00 in 708.00 W/m2
14:55 80.2 °F 50.8 °F 29.86 in SSW 3.0 mph 6.0 mph 36 % 0.00 in 694.00 W/m2
15:00 80.4 °F 49.5 °F 29.86 in Calm   4.0 mph 34 % 0.00 in 687.00 W/m2
15:01 80.3 °F 49.4 °F 29.86 in WSW 6.0 mph 6.0 mph 34 % 0.00 in 687.00 W/m2
15:06 80.2 °F 52.3 °F 29.85 in Calm     38 % 0.00 in 673.00 W/m2
15:11 80.3 °F 53.8 °F 29.85 in West 4.0 mph 4.0 mph 40 % 0.00 in 670.00 W/m2
15:16 80.3 °F 53.8 °F 29.85 in West 2.0 mph 5.0 mph 40 % 0.00 in 659.00 W/m2
15:21 80.4 °F 52.5 °F 29.85 in West 10.0 mph 10.0 mph 38 % 0.00 in 643.00 W/m2
15:26 80.4 °F 51.0 °F 29.86 in Calm     36 % 0.00 in 631.00 W/m2
15:31 80.5 °F 51.1 °F 29.86 in Calm     36 % 0.00 in 615.00 W/m2
15:36 80.5 °F 51.1 °F 29.86 in WSW 2.0 mph 2.0 mph 36 % 0.00 in 596.00 W/m2
15:41 80.3 °F 52.4 °F 29.86 in Calm     38 % 0.00 in 598.00 W/m2
15:46 79.8 °F 51.2 °F 29.85 in West 1.0 mph 1.0 mph 37 % 0.00 in 585.00 W/m2
15:51 79.7 °F 51.9 °F 29.85 in WSW 6.0 mph 6.0 mph 38 % 0.00 in 577.00 W/m2
15:56 79.6 °F 51.8 °F 29.85 in Calm   1.0 mph 38 % 0.00 in 564.00 W/m2
16:01 79.6 °F 52.5 °F 29.85 in SW 7.0 mph 9.0 mph 39 % 0.00 in 555.00 W/m2
16:06 79.7 °F 53.3 °F 29.85 in Calm     40 % 0.00 in 545.00 W/m2
16:11 79.7 °F 53.3 °F 29.86 in Calm   1.0 mph 40 % 0.00 in 529.00 W/m2
16:16 79.7 °F 52.6 °F 29.85 in WSW 5.0 mph 7.0 mph 39 % 0.00 in 512.00 W/m2
16:21 79.8 °F 53.4 °F 29.85 in Calm     40 % 0.00 in 497.00 W/m2
16:26 79.5 °F 53.8 °F 29.85 in Calm     41 % 0.00 in 487.00 W/m2
16:31 79.4 °F 53.0 °F 29.85 in Calm   1.0 mph 40 % 0.00 in 480.00 W/m2
16:36 79.3 °F 53.6 °F 29.85 in Calm     41 % 0.00 in 464.00 W/m2
16:41 79.1 °F 53.4 °F 29.85 in West 1.0 mph 5.0 mph 41 % 0.00 in 446.00 W/m2
16:46 79.0 °F 53.3 °F 29.85 in Calm     41 % 0.00 in 434.00 W/m2
16:51 78.9 °F 53.2 °F 29.86 in Calm   1.0 mph 41 % 0.00 in 418.00 W/m2
16:56 79.0 °F 54.0 °F 29.85 in Calm   6.0 mph 42 % 0.00 in 406.00 W/m2
17:01 79.0 °F 53.3 °F 29.85 in SW 3.0 mph 7.0 mph 41 % 0.00 in 397.00 W/m2
17:06 79.1 °F 54.1 °F 29.85 in Calm     42 % 0.00 in 388.00 W/m2
17:11 78.9 °F 53.9 °F 29.85 in Calm   1.0 mph 42 % 0.00 in 392.00 W/m2
17:16 78.9 °F 53.9 °F 29.85 in SW 1.0 mph 3.0 mph 42 % 0.00 in 373.00 W/m2
17:21 78.8 °F 53.8 °F 29.85 in Calm     42 % 0.00 in 357.00 W/m2
17:26 78.7 °F 53.7 °F 29.86 in SW 3.0 mph 3.0 mph 42 % 0.00 in 357.00 W/m2
17:31 78.7 °F 53.7 °F 29.86 in Calm   9.0 mph 42 % 0.00 in 341.00 W/m2
17:36 78.7 °F 53.7 °F 29.86 in Calm     42 % 0.00 in 322.00 W/m2
17:41 78.7 °F 53.7 °F 29.85 in Calm     42 % 0.00 in 302.00 W/m2
17:46 78.7 °F 53.7 °F 29.85 in WSW 1.0 mph 2.0 mph 42 % 0.00 in 281.00 W/m2
17:51 78.6 °F 53.6 °F 29.85 in Calm   5.0 mph 42 % 0.00 in 258.00 W/m2
17:56 78.6 °F 54.3 °F 29.85 in Calm   1.0 mph 43 % 0.00 in 243.00 W/m2
18:01 78.6 °F 53.6 °F 29.85 in Calm     42 % 0.00 in 227.00 W/m2
18:07 78.5 °F 54.2 °F 29.85 in Calm   1.0 mph 43 % 0.00 in 206.00 W/m2
18:12 78.4 °F 54.1 °F 29.85 in Calm     43 % 0.00 in 188.00 W/m2
18:17 78.3 °F 54.0 °F 29.85 in Calm     43 % 0.00 in 169.00 W/m2
18:22 78.0 °F 54.3 °F 29.85 in Calm     44 % 0.00 in 151.00 W/m2
18:27 77.9 °F 54.9 °F 29.85 in Calm     45 % 0.00 in 134.00 W/m2
18:32 77.7 °F 54.7 °F 29.85 in Calm     45 % 0.00 in 141.00 W/m2
18:37 77.4 °F 55.0 °F 29.86 in Calm     46 % 0.00 in 123.00 W/m2
18:42 77.2 °F 54.8 °F 29.86 in Calm     46 % 0.00 in 95.00 W/m2
18:47 77.0 °F 55.2 °F 29.86 in Calm     47 % 0.00 in 65.00 W/m2
18:52 76.8 °F 55.7 °F 29.87 in ESE 8.0 mph 11.0 mph 48 % 0.00 in 49.00 W/m2
18:57 76.3 °F 54.6 °F 29.86 in Calm   14.0 mph 47 % 0.00 in 35.00 W/m2
19:02 76.0 °F 52.5 °F 29.86 in ESE 6.0 mph 12.0 mph 44 % 0.00 in 23.00 W/m2
19:07 75.7 °F 51.6 °F 29.86 in ESE 6.0 mph 11.0 mph 43 % 0.00 in 18.00 W/m2
19:12 75.5 °F 52.1 °F 29.86 in ESE 4.0 mph 14.0 mph 44 % 0.00 in 14.00 W/m2
19:17 75.3 °F 51.3 °F 29.86 in Calm   9.0 mph 43 % 0.00 in 11.00 W/m2
19:22 74.9 °F 50.9 °F 29.86 in Calm   9.0 mph 43 % 0.00 in 7.00 W/m2
19:27 74.6 °F 51.3 °F 29.86 in East 1.0 mph 7.0 mph 44 % 0.00 in 5.00 W/m2
19:32 74.3 °F 51.0 °F 29.85 in Calm   5.0 mph 44 % 0.00 in 0.00 W/m2
19:37 74.0 °F 51.3 °F 29.86 in Calm   7.0 mph 45 % 0.00 in 0.00 W/m2
19:42 73.8 °F 51.2 °F 29.86 in East 4.0 mph 5.0 mph 45 % 0.00 in 0.00 W/m2
19:47 73.5 °F 51.5 °F 29.86 in Calm   5.0 mph 46 % 0.00 in 0.00 W/m2
19:53 73.2 °F 51.2 °F 29.86 in Calm   4.0 mph 46 % 0.00 in 0.00 W/m2
19:58 72.9 °F 51.5 °F 29.86 in ESE 2.0 mph 7.0 mph 47 % 0.00 in 0.00 W/m2
20:03 72.4 °F 51.6 °F 29.86 in Calm   9.0 mph 48 % 0.00 in 0.00 W/m2
20:08 72.0 °F 51.3 °F 29.86 in East 6.0 mph 8.0 mph 48 % 0.00 in 0.00 W/m2
20:17 71.3 °F 51.7 °F 29.86 in East 4.0 mph 5.0 mph 50 % 0.00 in 0.00 W/m2
20:20 71.1 °F 51.5 °F 29.86 in Calm   6.0 mph 50 % 0.00 in 0.00 W/m2
20:21 71.0 °F 51.5 °F 29.86 in Calm     50 % 0.00 in 0.00 W/m2
20:26 70.7 °F 51.7 °F 29.86 in Calm     51 % 0.00 in 0.00 W/m2
20:31 70.4 °F 52.0 °F 29.86 in Calm     52 % 0.00 in 0.00 W/m2
20:36 70.1 °F 51.7 °F 29.86 in East 4.0 mph 5.0 mph 52 % 0.00 in 0.00 W/m2
20:41 69.8 °F 51.4 °F 29.86 in Calm     52 % 0.00 in 0.00 W/m2
20:46 69.5 °F 51.6 °F 29.86 in Calm     53 % 0.00 in 0.00 W/m2
20:51 69.3 °F 52.0 °F 29.86 in East 1.0 mph 4.0 mph 54 % 0.00 in 0.00 W/m2
20:56 68.9 °F 51.6 °F 29.86 in ESE 5.0 mph 5.0 mph 54 % 0.00 in 0.00 W/m2
21:01 68.6 °F 51.8 °F 29.87 in East 2.0 mph 8.0 mph 55 % 0.00 in 0.00 W/m2
21:06 68.3 °F 51.5 °F 29.87 in East 7.0 mph 8.0 mph 55 % 0.00 in 0.00 W/m2
21:11 68.1 °F 51.8 °F 29.87 in East 5.0 mph 9.0 mph 56 % 0.00 in 0.00 W/m2
21:16 67.9 °F 51.6 °F 29.87 in ESE 7.0 mph 7.0 mph 56 % 0.00 in 0.00 W/m2
21:21 67.7 °F 51.5 °F 29.87 in ESE 9.0 mph 9.0 mph 56 % 0.00 in 0.00 W/m2
21:26 67.6 °F 51.4 °F 29.87 in East 6.0 mph 9.0 mph 56 % 0.00 in 0.00 W/m2
21:31 67.4 °F 51.2 °F 29.87 in East 5.0 mph 14.0 mph 56 % 0.00 in 0.00 W/m2
21:36 67.4 °F 51.2 °F 29.87 in East 9.0 mph 9.0 mph 56 % 0.00 in 0.00 W/m2
21:41 67.3 °F 51.1 °F 29.87 in ESE 7.0 mph 8.0 mph 56 % 0.00 in 0.00 W/m2
21:46 67.2 °F 51.0 °F 29.87 in East 12.0 mph 13.0 mph 56 % 0.00 in 0.00 W/m2
21:51 67.2 °F 51.0 °F 29.88 in ESE 9.0 mph 16.0 mph 56 % 0.00 in 0.00 W/m2
21:56 67.2 °F 51.0 °F 29.88 in East 2.0 mph 16.0 mph 56 % 0.00 in 0.00 W/m2
22:01 67.2 °F 51.0 °F 29.88 in East 5.0 mph 9.0 mph 56 % 0.00 in 0.00 W/m2
22:06 67.2 °F 51.0 °F 29.88 in East 1.0 mph 8.0 mph 56 % 0.00 in 0.00 W/m2
22:07 67.2 °F 51.0 °F 29.88 in East 1.0 mph 8.0 mph 56 % 0.00 in 0.00 W/m2
22:12 67.1 °F 50.4 °F 29.88 in East 5.0 mph 8.0 mph 55 % 0.00 in 0.00 W/m2
22:17 67.1 °F 50.4 °F 29.88 in East 4.0 mph 12.0 mph 55 % 0.00 in 0.00 W/m2
22:22 67.1 °F 50.4 °F 29.88 in Calm   11.0 mph 55 % 0.00 in 0.00 W/m2
22:27 67.0 °F 50.3 °F 29.88 in East 7.0 mph 11.0 mph 55 % 0.00 in 0.00 W/m2
22:32 67.0 °F 50.3 °F 29.88 in ESE 6.0 mph 11.0 mph 55 % 0.00 in 0.00 W/m2
22:37 67.0 °F 50.3 °F 29.88 in ESE 6.0 mph 13.0 mph 55 % 0.00 in 0.00 W/m2
22:42 67.0 °F 50.3 °F 29.88 in East 2.0 mph 8.0 mph 55 % 0.00 in 0.00 W/m2
22:47 67.0 °F 50.3 °F 29.88 in East 2.0 mph 12.0 mph 55 % 0.00 in 0.00 W/m2
22:52 66.9 °F 50.2 °F 29.88 in ESE 9.0 mph 9.0 mph 55 % 0.00 in 0.00 W/m2
22:57 66.9 °F 50.2 °F 29.88 in East 4.0 mph 11.0 mph 55 % 0.00 in 0.00 W/m2
23:02 66.9 °F 50.2 °F 29.88 in East 7.0 mph 11.0 mph 55 % 0.00 in 0.00 W/m2
23:07 66.9 °F 50.2 °F 29.88 in East 13.0 mph 13.0 mph 55 % 0.00 in 0.00 W/m2
23:12 66.9 °F 50.2 °F 29.88 in East 8.0 mph 9.0 mph 55 % 0.00 in 0.00 W/m2
23:17 66.9 °F 50.2 °F 29.88 in ESE 8.0 mph 11.0 mph 55 % 0.00 in 0.00 W/m2
23:22 66.8 °F 50.1 °F 29.89 in East 5.0 mph 14.0 mph 55 % 0.00 in 0.00 W/m2
23:27 66.8 °F 50.1 °F 29.89 in East 4.0 mph 8.0 mph 55 % 0.00 in 0.00 W/m2
23:32 66.7 °F 50.0 °F 29.89 in East 6.0 mph 9.0 mph 55 % 0.00 in 0.00 W/m2
23:37 66.7 °F 50.0 °F 29.89 in East 1.0 mph 9.0 mph 55 % 0.00 in 0.00 W/m2
23:42 66.6 °F 50.0 °F 29.89 in East 7.0 mph 12.0 mph 55 % 0.00 in 0.00 W/m2
23:47 66.5 °F 49.8 °F 29.89 in East 6.0 mph 9.0 mph 55 % 0.00 in 0.00 W/m2
23:52 66.5 °F 49.8 °F 29.89 in Calm   11.0 mph 55 % 0.00 in 0.00 W/m2
23:57 66.4 °F 49.8 °F 29.89 in East 6.0 mph 9.0 mph 55 % 0.00 in 0.00 W/m2
Juneau County Weather
Compliments of Weather Underground - 4.5 mb
 WU-history PHP script courtesy of   Juneau County Weather.
powered by Cumulus v1.9.3 (1059)
Ambient Weather VWS v14.00
Top Contact Website Map Copyright © 2007 - 2018 Foresthillweather.com Never base important decisions on this or any weather information obtained from the Internet